Time,TemperatureF,DewpointF,PressureIn,WindDirection,WindDirectionDegrees,WindSpeedMPH,WindSpeedGustMPH,Humidity,HourlyPrecipIn,Conditions,Clouds,dailyrainin,SoftwareType,DateUTC
2013-02-22 00:00:00,39.7,39.2,27.90,SSE,158,0.0,0.0,98,0.00,,---,0.00,VWS V14.01,2013-02-22 05:00:00,
2013-02-22 00:05:00,39.7,39.2,27.88,SSE,158,0.0,0.0,98,0.00,,---,0.00,VWS V14.01,2013-02-22 05:05:00,
2013-02-22 00:10:00,39.7,39.2,27.88,SSE,158,0.0,0.0,98,0.00,,---,0.00,VWS V14.01,2013-02-22 05:10:00,
2013-02-22 00:15:00,39.7,39.2,27.88,SSE,158,0.0,0.0,98,0.00,,---,0.00,VWS V14.01,2013-02-22 05:15:00,
2013-02-22 00:20:00,39.7,39.2,27.88,SSE,158,0.0,0.0,98,0.00,,---,0.00,VWS V14.01,2013-02-22 05:20:00,
2013-02-22 00:26:00,39.6,39.0,27.88,SSE,158,0.0,0.0,98,0.00,,---,0.00,VWS V14.01,2013-02-22 05:26:00,
2013-02-22 00:31:00,39.7,39.2,27.88,SSE,158,0.0,0.0,98,0.00,,---,0.00,VWS V14.01,2013-02-22 05:31:00,
2013-02-22 00:36:00,39.7,39.2,27.90,SSE,158,0.0,0.0,98,0.00,,---,0.00,VWS V14.01,2013-02-22 05:36:00,
2013-02-22 00:41:00,39.7,39.2,27.90,SSE,158,0.0,0.0,98,0.00,,---,0.00,VWS V14.01,2013-02-22 05:41:00,
2013-02-22 00:46:00,39.9,39.4,27.90,SSE,158,0.0,0.0,98,0.00,,---,0.00,VWS V14.01,2013-02-22 05:46:00,
2013-02-22 00:51:00,40.1,39.6,27.88,SSE,158,0.0,0.0,98,0.00,,---,0.00,VWS V14.01,2013-02-22 05:51:00,
2013-02-22 00:56:00,40.1,39.6,27.88,SSE,158,0.0,0.0,98,0.00,,---,0.00,VWS V14.01,2013-02-22 05:56:00,
2013-02-22 01:01:00,40.3,39.8,27.88,SSE,158,0.0,0.0,98,0.00,,---,0.00,VWS V14.01,2013-02-22 06:01:00,
2013-02-22 01:06:00,40.3,39.8,27.88,SSE,158,0.0,0.0,98,0.00,,---,0.00,VWS V14.01,2013-02-22 06:06:00,
2013-02-22 01:11:00,40.3,39.8,27.88,SSE,158,0.0,0.0,98,0.00,,---,0.00,VWS V14.01,2013-02-22 06:11:00,
2013-02-22 01:16:00,40.1,39.6,27.88,SSE,158,0.0,0.0,98,0.00,,---,0.00,VWS V14.01,2013-02-22 06:16:00,
2013-02-22 01:21:00,40.3,39.8,27.88,SSE,158,0.0,0.0,98,0.00,,---,0.00,VWS V14.01,2013-02-22 06:21:00,
2013-02-22 01:26:00,40.5,39.9,27.88,SSE,158,0.0,0.0,98,0.00,,---,0.00,VWS V14.01,2013-02-22 06:26:00,
2013-02-22 01:31:00,40.5,39.9,27.88,SSE,158,0.0,0.0,98,0.00,,---,0.00,VWS V14.01,2013-02-22 06:31:00,
2013-02-22 01:36:00,40.5,39.9,27.88,SSE,158,0.0,0.0,98,0.00,,---,0.00,VWS V14.01,2013-02-22 06:36:00,
2013-02-22 01:41:00,40.6,40.1,27.88,SSE,158,0.0,0.0,98,0.00,,---,0.00,VWS V14.01,2013-02-22 06:41:00,
2013-02-22 01:46:00,40.6,40.1,27.88,SSE,158,0.0,0.0,98,0.00,,---,0.00,VWS V14.01,2013-02-22 06:46:00,
2013-02-22 01:51:00,40.8,40.3,27.88,SSE,158,0.0,0.0,98,0.00,,---,0.00,VWS V14.01,2013-02-22 06:51:00,
2013-02-22 01:56:00,40.8,40.3,27.88,SSE,158,0.0,0.0,98,0.00,,---,0.00,VWS V14.01,2013-02-22 06:56:00,
2013-02-22 02:01:00,41.0,40.5,27.88,SSE,158,0.0,0.0,98,0.00,,---,0.00,VWS V14.01,2013-02-22 07:01:00,
2013-02-22 02:06:00,41.0,40.5,27.88,SSE,158,0.0,0.0,98,0.00,,---,0.00,VWS V14.01,2013-02-22 07:06:00,
2013-02-22 02:11:00,41.0,40.5,27.88,SSE,158,0.0,0.0,98,0.00,,---,0.00,VWS V14.01,2013-02-22 07:11:00,
2013-02-22 02:16:00,41.2,40.7,27.88,SSE,158,0.0,0.0,98,0.00,,---,0.00,VWS V14.01,2013-02-22 07:16:00,
2013-02-22 02:22:00,41.0,40.5,27.88,SSE,158,0.0,0.0,98,0.00,,---,0.00,VWS V14.01,2013-02-22 07:22:00,
2013-02-22 02:27:00,41.0,40.5,27.88,SSE,158,0.0,0.0,98,0.00,,---,0.00,VWS V14.01,2013-02-22 07:27:00,
2013-02-22 02:32:00,41.2,40.7,27.88,SSE,158,0.0,0.0,98,0.00,,---,0.00,VWS V14.01,2013-02-22 07:32:00,
2013-02-22 02:37:00,41.2,40.7,27.88,SSE,158,0.0,0.0,98,0.00,,---,0.00,VWS V14.01,2013-02-22 07:37:00,
2013-02-22 02:42:00,41.4,40.8,27.88,SSE,158,0.0,0.0,98,0.00,,---,0.00,VWS V14.01,2013-02-22 07:42:00,
2013-02-22 02:47:00,41.4,40.8,27.88,SSE,158,0.0,0.0,98,0.00,,---,0.00,VWS V14.01,2013-02-22 07:47:00,
2013-02-22 02:52:00,41.4,40.8,27.88,SSE,158,0.0,0.0,98,0.00,,---,0.00,VWS V14.01,2013-02-22 07:52:00,
2013-02-22 02:57:00,41.2,40.7,27.88,SSE,158,0.0,0.0,98,0.00,,---,0.00,VWS V14.01,2013-02-22 07:57:00,
2013-02-22 03:02:00,41.4,40.8,27.88,SSE,158,0.0,0.0,98,0.00,,---,0.00,VWS V14.01,2013-02-22 08:02:00,
2013-02-22 03:07:00,41.5,41.0,27.88,SSE,158,0.0,0.0,98,0.00,,---,0.00,VWS V14.01,2013-02-22 08:07:00,
2013-02-22 03:12:00,41.7,41.2,27.88,SSE,158,0.0,0.0,98,0.00,,---,0.00,VWS V14.01,2013-02-22 08:12:00,
2013-02-22 03:18:00,41.7,41.2,27.88,SSE,158,0.0,0.0,98,0.00,,---,0.00,VWS V14.01,2013-02-22 08:18:00,
2013-02-22 03:23:00,41.9,41.4,27.88,SSE,158,0.0,0.0,98,0.00,,---,0.00,VWS V14.01,2013-02-22 08:23:00,
2013-02-22 03:28:00,42.1,41.6,27.88,SSE,158,0.0,0.0,98,0.00,,---,0.00,VWS V14.01,2013-02-22 08:28:00,
2013-02-22 03:33:00,42.1,41.6,27.88,SSE,158,0.0,0.0,98,0.00,,---,0.00,VWS V14.01,2013-02-22 08:33:00,
2013-02-22 03:38:00,42.1,41.6,27.88,SSE,158,0.0,0.0,98,0.00,,---,0.00,VWS V14.01,2013-02-22 08:38:00,
2013-02-22 03:43:00,42.1,41.6,27.88,SSE,158,0.0,0.0,98,0.00,,---,0.00,VWS V14.01,2013-02-22 08:43:00,
2013-02-22 03:48:00,42.1,41.6,27.88,SSE,158,0.0,0.0,98,0.00,,---,0.00,VWS V14.01,2013-02-22 08:48:00,
2013-02-22 03:53:00,41.9,41.4,27.88,SSE,158,0.0,0.0,98,0.00,,---,0.00,VWS V14.01,2013-02-22 08:53:00,
2013-02-22 03:58:00,41.9,41.4,27.88,SSE,158,0.0,0.0,98,0.00,,---,0.00,VWS V14.01,2013-02-22 08:58:00,
2013-02-22 04:03:00,41.9,41.4,27.88,SSE,158,0.0,0.0,98,0.00,,---,0.00,VWS V14.01,2013-02-22 09:03:00,
2013-02-22 04:08:00,41.9,41.4,27.88,SSE,158,0.0,0.0,98,0.00,,---,0.00,VWS V14.01,2013-02-22 09:08:00,
2013-02-22 04:13:00,41.7,41.2,27.88,SSE,158,0.0,0.0,98,0.00,,---,0.00,VWS V14.01,2013-02-22 09:13:00,
2013-02-22 04:18:00,41.7,41.2,27.88,SSE,158,0.0,0.0,98,0.00,,---,0.00,VWS V14.01,2013-02-22 09:18:00,
2013-02-22 04:23:00,41.7,41.2,27.88,SSE,158,0.0,0.0,98,0.00,,---,0.00,VWS V14.01,2013-02-22 09:23:00,
2013-02-22 04:28:00,41.7,41.2,27.88,SSE,158,0.0,0.0,98,0.00,,---,0.00,VWS V14.01,2013-02-22 09:28:00,
2013-02-22 04:34:00,41.7,41.2,27.85,SSE,158,0.0,0.0,98,0.00,,---,0.00,VWS V14.01,2013-02-22 09:34:00,
2013-02-22 04:39:00,41.7,41.2,27.85,SSE,158,0.0,0.0,98,0.00,,---,0.00,VWS V14.01,2013-02-22 09:39:00,
2013-02-22 04:44:00,41.7,41.2,27.85,SSE,158,0.0,0.0,98,0.00,,---,0.00,VWS V14.01,2013-02-22 09:44:00,
2013-02-22 04:49:00,41.7,41.2,27.85,SSE,158,0.0,0.0,98,0.00,,---,0.00,VWS V14.01,2013-02-22 09:49:00,
2013-02-22 04:54:00,41.7,41.2,27.85,SSE,158,0.0,0.0,98,0.00,,---,0.00,VWS V14.01,2013-02-22 09:54:00,
2013-02-22 04:59:00,41.7,41.2,27.85,SSE,158,0.0,0.0,98,0.00,,---,0.00,VWS V14.01,2013-02-22 09:59:00,
2013-02-22 05:04:00,41.7,41.2,27.88,SSE,158,0.0,0.0,98,0.00,,---,0.00,VWS V14.01,2013-02-22 10:04:00,
2013-02-22 05:09:00,41.7,41.2,27.88,SSE,158,0.0,0.0,98,0.00,,---,0.00,VWS V14.01,2013-02-22 10:09:00,
2013-02-22 05:14:00,41.7,41.2,27.88,SSE,158,0.0,0.0,98,0.00,,---,0.00,VWS V14.01,2013-02-22 10:14:00,
2013-02-22 05:19:00,41.7,41.2,27.88,SSE,158,0.0,0.0,98,0.00,,---,0.00,VWS V14.01,2013-02-22 10:19:00,
2013-02-22 05:24:00,41.5,41.0,27.88,SSE,158,0.0,0.0,98,0.00,,---,0.00,VWS V14.01,2013-02-22 10:24:00,
2013-02-22 05:30:00,41.5,41.0,27.88,SSE,158,0.0,0.0,98,0.00,,---,0.00,VWS V14.01,2013-02-22 10:30:00,
2013-02-22 05:35:00,41.5,41.0,27.88,SSE,158,0.0,0.0,98,0.00,,---,0.00,VWS V14.01,2013-02-22 10:35:00,
2013-02-22 05:40:00,41.5,41.0,27.88,SSE,158,0.0,0.0,98,0.00,,---,0.00,VWS V14.01,2013-02-22 10:40:00,
2013-02-22 05:45:00,41.5,41.0,27.88,SSE,158,0.0,0.0,98,0.00,,---,0.00,VWS V14.01,2013-02-22 10:45:00,
2013-02-22 05:50:00,41.5,41.0,27.88,SSE,158,0.0,0.0,98,0.00,,---,0.00,VWS V14.01,2013-02-22 10:50:00,
2013-02-22 05:55:00,41.5,41.0,27.88,SSE,158,0.0,0.0,98,0.00,,---,0.00,VWS V14.01,2013-02-22 10:55:00,
2013-02-22 06:00:00,41.5,41.0,27.88,SSE,158,0.0,0.0,98,0.00,,---,0.00,VWS V14.01,2013-02-22 11:00:00,
2013-02-22 06:05:00,41.4,40.8,27.88,SSE,158,0.0,0.0,98,0.00,,---,0.00,VWS V14.01,2013-02-22 11:05:00,
2013-02-22 06:10:00,41.4,40.8,27.88,SSE,158,0.0,0.0,98,0.00,,---,0.00,VWS V14.01,2013-02-22 11:10:00,
2013-02-22 06:15:00,41.5,41.0,27.88,SSE,158,0.0,0.0,98,0.00,,---,0.00,VWS V14.01,2013-02-22 11:15:00,
2013-02-22 06:21:00,41.5,41.0,27.88,SSE,158,0.0,0.0,98,0.00,,---,0.00,VWS V14.01,2013-02-22 11:21:00,
2013-02-22 06:26:00,41.4,40.8,27.88,SSE,158,0.0,0.0,98,0.00,,---,0.00,VWS V14.01,2013-02-22 11:26:00,
2013-02-22 06:31:00,41.4,40.8,27.88,SSE,158,0.0,0.0,98,0.00,,---,0.00,VWS V14.01,2013-02-22 11:31:00,
2013-02-22 06:36:00,41.4,40.8,27.88,SSE,158,0.0,0.0,98,0.00,,---,0.00,VWS V14.01,2013-02-22 11:36:00,
2013-02-22 06:41:00,41.5,41.0,27.88,SSE,158,0.0,0.0,98,0.00,,---,0.00,VWS V14.01,2013-02-22 11:41:00,
2013-02-22 06:46:00,41.5,41.0,27.88,SSE,158,0.0,0.0,98,0.00,,---,0.00,VWS V14.01,2013-02-22 11:46:00,
2013-02-22 06:51:00,41.5,41.0,27.88,SSE,158,0.0,0.0,98,0.00,,---,0.00,VWS V14.01,2013-02-22 11:51:00,
2013-02-22 06:56:00,41.4,40.8,27.88,SSE,158,0.0,0.0,98,0.00,,---,0.00,VWS V14.01,2013-02-22 11:56:00,
2013-02-22 07:01:00,41.4,40.8,27.88,SSE,158,0.0,0.0,98,0.00,,---,0.00,VWS V14.01,2013-02-22 12:01:00,
2013-02-22 07:06:00,41.5,41.0,27.88,SSE,158,0.0,0.0,98,0.00,,---,0.00,VWS V14.01,2013-02-22 12:06:00,
2013-02-22 07:11:00,41.5,41.0,27.88,SSE,158,0.0,0.0,98,0.00,,---,0.00,VWS V14.01,2013-02-22 12:11:00,
2013-02-22 07:16:00,41.5,41.0,27.88,SSE,158,0.0,0.0,98,0.00,,---,0.00,VWS V14.01,2013-02-22 12:16:00,
2013-02-22 07:21:00,41.5,41.0,27.90,SSE,158,0.0,0.0,98,0.00,,---,0.00,VWS V14.01,2013-02-22 12:21:00,
2013-02-22 07:26:00,41.5,41.0,27.90,SSE,158,0.0,0.0,98,0.00,,---,0.00,VWS V14.01,2013-02-22 12:26:00,
2013-02-22 07:31:00,41.5,41.0,27.90,SSE,158,0.0,0.0,98,0.00,,---,0.00,VWS V14.01,2013-02-22 12:31:00,
2013-02-22 07:36:00,41.5,41.0,27.90,SSE,158,0.0,0.0,98,0.00,,---,0.00,VWS V14.01,2013-02-22 12:36:00,
2013-02-22 07:41:00,41.5,41.0,27.90,SSE,158,0.0,0.0,98,0.00,,---,0.00,VWS V14.01,2013-02-22 12:41:00,
2013-02-22 07:46:00,41.5,41.0,27.90,SSE,158,0.0,0.0,98,0.00,,---,0.00,VWS V14.01,2013-02-22 12:46:00,
2013-02-22 07:51:00,41.5,41.0,27.90,SSE,158,0.0,0.0,98,0.00,,---,0.00,VWS V14.01,2013-02-22 12:51:00,
2013-02-22 07:56:00,41.7,41.2,27.90,SSE,158,0.0,0.0,98,0.00,,---,0.00,VWS V14.01,2013-02-22 12:56:00,
2013-02-22 08:01:00,41.7,41.2,27.90,SSE,158,0.0,0.0,98,0.00,,---,0.00,VWS V14.01,2013-02-22 13:01:00,
2013-02-22 08:06:00,41.7,41.2,27.93,SSE,158,0.0,0.0,98,0.00,,---,0.00,VWS V14.01,2013-02-22 13:06:00,
2013-02-22 08:11:00,41.7,41.2,27.93,SSE,158,0.0,0.0,98,0.00,,---,0.00,VWS V14.01,2013-02-22 13:11:00,
2013-02-22 08:16:00,41.7,41.2,27.93,SSE,158,0.0,0.0,98,0.00,,---,0.00,VWS V14.01,2013-02-22 13:16:00,
2013-02-22 08:21:00,41.7,41.2,27.93,SSE,158,0.0,0.0,98,0.00,,---,0.00,VWS V14.01,2013-02-22 13:21:00,
2013-02-22 08:26:00,41.7,41.2,27.93,SSE,158,0.0,0.0,98,0.00,,---,0.00,VWS V14.01,2013-02-22 13:26:00,
2013-02-22 08:31:00,41.7,41.2,27.93,SSE,158,0.0,0.0,98,0.00,,---,0.00,VWS V14.01,2013-02-22 13:31:00,
2013-02-22 08:36:00,41.7,41.2,27.93,SSE,158,0.0,0.0,98,0.00,,---,0.00,VWS V14.01,2013-02-22 13:36:00,
2013-02-22 08:42:00,41.7,41.2,27.93,SSE,158,0.0,0.0,98,0.00,,---,0.00,VWS V14.01,2013-02-22 13:42:00,
2013-02-22 08:47:00,41.7,41.2,27.93,SSE,158,0.0,0.0,98,0.00,,---,0.00,VWS V14.01,2013-02-22 13:47:00,
2013-02-22 08:52:00,41.7,41.2,27.93,SSE,158,0.0,0.0,98,0.00,,---,0.00,VWS V14.01,2013-02-22 13:52:00,
2013-02-22 08:57:00,41.5,41.0,27.93,SSE,158,0.0,0.0,98,0.00,,---,0.00,VWS V14.01,2013-02-22 13:57:00,
2013-02-22 09:02:00,41.5,41.0,27.93,SSE,158,0.0,0.0,98,0.00,,---,0.00,VWS V14.01,2013-02-22 14:02:00,
2013-02-22 09:07:00,41.5,41.0,27.93,SSE,158,0.0,0.0,98,0.00,,---,0.00,VWS V14.01,2013-02-22 14:07:00,
2013-02-22 09:12:00,41.5,41.0,27.93,SSE,158,0.0,0.0,98,0.00,,---,0.00,VWS V14.01,2013-02-22 14:12:00,
2013-02-22 09:17:00,41.4,40.8,27.93,SSE,158,0.0,0.0,98,0.00,,---,0.00,VWS V14.01,2013-02-22 14:17:00,
2013-02-22 09:22:00,41.4,40.8,27.93,SSE,158,0.0,0.0,98,0.00,,---,0.00,VWS V14.01,2013-02-22 14:22:00,
2013-02-22 09:27:00,41.4,40.8,27.93,SSE,158,0.0,0.0,98,0.00,,---,0.00,VWS V14.01,2013-02-22 14:27:00,
2013-02-22 09:32:00,41.2,40.7,27.93,SSE,158,0.0,0.0,98,0.00,,---,0.00,VWS V14.01,2013-02-22 14:32:00,
2013-02-22 09:37:00,41.2,40.7,27.93,SSE,158,0.0,0.0,98,0.00,,---,0.00,VWS V14.01,2013-02-22 14:37:00,
2013-02-22 09:42:00,41.2,40.7,27.93,SSE,158,0.0,0.0,98,0.00,,---,0.00,VWS V14.01,2013-02-22 14:42:00,
2013-02-22 09:47:00,41.2,40.7,27.93,SSE,158,0.0,0.0,98,0.00,,---,0.00,VWS V14.01,2013-02-22 14:47:00,
2013-02-22 09:52:00,41.2,40.7,27.93,SSE,158,0.0,0.0,98,0.00,,---,0.00,VWS V14.01,2013-02-22 14:52:00,
2013-02-22 09:57:00,41.2,40.7,27.93,SSE,158,0.0,0.0,98,0.00,,---,0.00,VWS V14.01,2013-02-22 14:57:00,
2013-02-22 10:03:00,41.2,40.7,27.93,SSE,158,0.0,0.0,98,0.00,,---,0.00,VWS V14.01,2013-02-22 15:03:00,
2013-02-22 10:08:00,41.4,40.8,27.93,SSE,158,0.0,0.0,98,0.00,,---,0.00,VWS V14.01,2013-02-22 15:08:00,
2013-02-22 10:13:00,41.4,40.8,27.93,SSE,158,0.0,0.0,98,0.00,,---,0.00,VWS V14.01,2013-02-22 15:13:00,
2013-02-22 10:18:00,41.4,40.8,27.93,SSE,158,0.0,0.0,98,0.00,,---,0.00,VWS V14.01,2013-02-22 15:18:00,
2013-02-22 10:23:00,41.5,41.0,27.93,SSE,158,0.0,0.0,98,0.00,,---,0.00,VWS V14.01,2013-02-22 15:23:00,
2013-02-22 10:28:00,41.4,40.8,27.93,SSE,158,0.0,0.0,98,0.00,,---,0.00,VWS V14.01,2013-02-22 15:28:00,
2013-02-22 10:33:00,41.5,41.0,27.93,SSE,158,0.0,0.0,98,0.00,,---,0.00,VWS V14.01,2013-02-22 15:33:00,
2013-02-22 10:38:00,41.5,41.0,27.93,SSE,158,0.0,0.0,98,0.00,,---,0.00,VWS V14.01,2013-02-22 15:38:00,
2013-02-22 10:43:00,41.5,41.0,27.93,SSE,158,0.0,0.0,98,0.00,,---,0.00,VWS V14.01,2013-02-22 15:43:00,
2013-02-22 10:48:00,41.5,41.0,27.93,SSE,158,0.0,0.0,98,0.00,,---,0.00,VWS V14.01,2013-02-22 15:48:00,
2013-02-22 10:53:00,41.7,41.2,27.93,SSE,158,0.0,0.0,98,0.00,,---,0.00,VWS V14.01,2013-02-22 15:53:00,
2013-02-22 10:58:00,41.7,41.2,27.93,SSE,158,0.0,0.0,98,0.00,,---,0.00,VWS V14.01,2013-02-22 15:58:00,
2013-02-22 11:04:00,41.7,41.2,27.93,SSE,158,0.0,0.0,98,0.00,,---,0.00,VWS V14.01,2013-02-22 16:04:00,
2013-02-22 11:09:00,41.7,41.2,27.93,SSE,158,0.0,0.0,98,0.00,,---,0.00,VWS V14.01,2013-02-22 16:09:00,
2013-02-22 11:14:00,41.7,41.2,27.93,SSE,158,0.0,0.0,98,0.00,,---,0.00,VWS V14.01,2013-02-22 16:14:00,
2013-02-22 11:19:00,41.7,41.2,27.93,SSE,158,0.0,0.0,98,0.00,,---,0.00,VWS V14.01,2013-02-22 16:19:00,
2013-02-22 11:24:00,41.7,41.2,27.93,SSE,158,0.0,0.0,98,0.00,,---,0.00,VWS V14.01,2013-02-22 16:24:00,
2013-02-22 11:29:00,41.7,41.2,27.93,SSE,158,0.0,0.0,98,0.00,,---,0.00,VWS V14.01,2013-02-22 16:29:00,
2013-02-22 11:34:00,41.5,41.0,27.93,SSE,158,0.0,0.0,98,0.00,,---,0.00,VWS V14.01,2013-02-22 16:34:00,
2013-02-22 11:39:00,41.7,41.2,27.93,SSE,158,0.0,0.0,98,0.00,,---,0.00,VWS V14.01,2013-02-22 16:39:00,
2013-02-22 11:44:00,41.7,41.2,27.93,SSE,158,0.0,0.0,98,0.00,,---,0.00,VWS V14.01,2013-02-22 16:44:00,
2013-02-22 11:49:00,41.7,41.2,27.93,SSE,158,0.0,0.0,98,0.00,,---,0.00,VWS V14.01,2013-02-22 16:49:00,
2013-02-22 11:54:00,41.9,41.4,27.93,SSE,158,0.0,0.0,98,0.00,,---,0.00,VWS V14.01,2013-02-22 16:54:00,
2013-02-22 11:59:00,41.7,41.2,27.93,SSE,158,0.0,0.0,98,0.00,,---,0.00,VWS V14.01,2013-02-22 16:59:00,
2013-02-22 12:04:00,41.9,41.4,27.93,SSE,158,0.0,0.0,98,0.00,,---,0.00,VWS V14.01,2013-02-22 17:04:00,
2013-02-22 12:09:00,41.9,41.4,27.93,SSE,158,0.0,0.0,98,0.00,,---,0.00,VWS V14.01,2013-02-22 17:09:00,
2013-02-22 12:14:00,41.9,41.4,27.93,SSE,158,0.0,0.0,98,0.00,,---,0.00,VWS V14.01,2013-02-22 17:14:00,
2013-02-22 12:19:00,41.9,41.4,27.93,SSE,158,0.0,0.0,98,0.00,,---,0.00,VWS V14.01,2013-02-22 17:19:00,
2013-02-22 12:24:00,42.1,41.6,27.93,SSE,158,0.0,0.0,98,0.00,,---,0.00,VWS V14.01,2013-02-22 17:24:00,
2013-02-22 12:29:00,42.1,41.6,27.93,SSE,158,0.0,0.0,98,0.00,,---,0.00,VWS V14.01,2013-02-22 17:29:00,
2013-02-22 12:35:00,42.1,41.6,27.96,SSE,158,0.0,0.0,98,0.00,,---,0.00,VWS V14.01,2013-02-22 17:35:00,
2013-02-22 12:40:00,42.1,41.6,27.96,SSE,158,0.0,0.0,98,0.00,,---,0.00,VWS V14.01,2013-02-22 17:40:00,
2013-02-22 12:45:00,42.3,41.7,27.96,SSE,158,0.0,0.0,98,0.00,,---,0.00,VWS V14.01,2013-02-22 17:45:00,
2013-02-22 12:50:00,42.3,41.7,27.93,SSE,158,0.0,0.0,98,0.00,,---,0.00,VWS V14.01,2013-02-22 17:50:00,
2013-02-22 12:55:00,42.3,41.7,27.93,SSE,158,0.0,0.0,98,0.00,,---,0.00,VWS V14.01,2013-02-22 17:55:00,
2013-02-22 13:00:00,42.3,41.7,27.93,SSE,158,0.0,0.0,98,0.00,,---,0.00,VWS V14.01,2013-02-22 18:00:00,
2013-02-22 13:05:00,42.3,41.7,27.96,SSE,158,0.0,0.0,98,0.00,,---,0.00,VWS V14.01,2013-02-22 18:05:00,
2013-02-22 13:10:00,42.3,41.7,27.96,SSE,158,0.0,0.0,98,0.00,,---,0.00,VWS V14.01,2013-02-22 18:10:00,
2013-02-22 13:15:00,42.4,41.9,27.96,SSE,158,0.0,0.0,98,0.00,,---,0.00,VWS V14.01,2013-02-22 18:15:00,
2013-02-22 13:20:00,42.6,42.1,27.93,SSE,158,0.0,0.0,98,0.00,,---,0.00,VWS V14.01,2013-02-22 18:20:00,
2013-02-22 13:25:00,42.8,42.3,27.93,SSE,158,0.0,0.0,98,0.00,,---,0.00,VWS V14.01,2013-02-22 18:25:00,
2013-02-22 13:31:00,42.8,42.3,27.93,SSE,158,0.0,0.0,98,0.00,,---,0.00,VWS V14.01,2013-02-22 18:31:00,
2013-02-22 13:36:00,43.0,42.5,27.93,SSE,158,0.0,0.0,98,0.00,,---,0.00,VWS V14.01,2013-02-22 18:36:00,
2013-02-22 13:41:00,43.0,42.5,27.93,SSE,158,0.0,0.0,98,0.00,,---,0.00,VWS V14.01,2013-02-22 18:41:00,
2013-02-22 13:46:00,42.8,42.3,27.93,SSE,158,0.0,0.0,98,0.00,,---,0.00,VWS V14.01,2013-02-22 18:46:00,
2013-02-22 13:51:00,42.8,42.3,27.93,SSE,158,0.0,0.0,98,0.00,,---,0.00,VWS V14.01,2013-02-22 18:51:00,
2013-02-22 13:56:00,43.0,42.5,27.93,SSE,158,0.0,0.0,98,0.00,,---,0.00,VWS V14.01,2013-02-22 18:56:00,
2013-02-22 14:01:00,43.0,42.5,27.93,SSE,158,0.0,0.0,98,0.00,,---,0.00,VWS V14.01,2013-02-22 19:01:00,
2013-02-22 14:06:00,43.0,42.5,27.93,SSE,158,0.0,0.0,98,0.00,,---,0.00,VWS V14.01,2013-02-22 19:06:00,
2013-02-22 14:11:00,43.2,42.6,27.93,SSE,158,0.0,0.0,98,0.00,,---,0.00,VWS V14.01,2013-02-22 19:11:00,
2013-02-22 14:16:00,43.2,42.6,27.93,SSE,158,0.0,0.0,98,0.00,,---,0.00,VWS V14.01,2013-02-22 19:16:00,
2013-02-22 14:21:00,43.5,43.0,27.93,SSE,158,0.0,0.0,98,0.00,,---,0.00,VWS V14.01,2013-02-22 19:21:00,
2013-02-22 14:26:00,43.5,43.0,27.93,SSE,158,0.0,0.0,98,0.00,,---,0.00,VWS V14.01,2013-02-22 19:26:00,
2013-02-22 14:31:00,43.9,43.3,27.93,SSE,158,0.0,0.0,98,0.00,,---,0.00,VWS V14.01,2013-02-22 19:31:00,
2013-02-22 14:36:00,44.1,43.5,27.93,SSE,158,0.0,0.0,98,0.00,,---,0.00,VWS V14.01,2013-02-22 19:36:00,
2013-02-22 14:41:00,43.9,43.3,27.93,SSE,158,0.0,0.0,98,0.00,,---,0.00,VWS V14.01,2013-02-22 19:41:00,
2013-02-22 14:46:00,44.2,43.7,27.93,SSE,158,0.0,0.0,98,0.00,,---,0.00,VWS V14.01,2013-02-22 19:46:00,
2013-02-22 14:51:00,44.2,43.7,27.93,SSE,158,0.0,0.0,98,0.00,,---,0.00,VWS V14.01,2013-02-22 19:51:00,
2013-02-22 14:57:00,44.1,43.5,27.93,SSE,158,0.0,0.0,98,0.00,,---,0.00,VWS V14.01,2013-02-22 19:57:00,
2013-02-22 15:02:00,43.9,43.1,27.90,SSE,158,0.0,0.0,97,0.00,,---,0.00,VWS V14.01,2013-02-22 20:02:00,
2013-02-22 15:07:00,43.7,42.9,27.90,SSE,158,0.0,0.0,97,0.00,,---,0.00,VWS V14.01,2013-02-22 20:07:00,
2013-02-22 15:12:00,43.7,42.9,27.90,SSE,158,0.0,0.0,97,0.00,,---,0.00,VWS V14.01,2013-02-22 20:12:00,
2013-02-22 15:17:00,43.5,42.7,27.90,SSE,158,0.0,0.0,97,0.00,,---,0.00,VWS V14.01,2013-02-22 20:17:00,
2013-02-22 15:22:00,43.3,42.5,27.90,SSE,158,0.0,0.0,97,0.00,,---,0.00,VWS V14.01,2013-02-22 20:22:00,
2013-02-22 15:27:00,43.3,42.5,27.90,SSE,158,0.0,0.0,97,0.00,,---,0.00,VWS V14.01,2013-02-22 20:27:00,
2013-02-22 15:32:00,43.3,42.5,27.90,SSE,158,0.0,0.0,97,0.00,,---,0.00,VWS V14.01,2013-02-22 20:32:00,
2013-02-22 15:37:00,43.2,42.4,27.90,SSE,158,0.0,0.0,97,0.00,,---,0.00,VWS V14.01,2013-02-22 20:37:00,
2013-02-22 15:42:00,43.2,42.4,27.90,SSE,158,0.0,0.0,97,0.00,,---,0.00,VWS V14.01,2013-02-22 20:42:00,
2013-02-22 15:47:00,43.2,42.4,27.90,SSE,158,0.0,0.0,97,0.00,,---,0.00,VWS V14.01,2013-02-22 20:47:00,
2013-02-22 15:52:00,43.2,42.4,27.90,SSE,158,0.0,0.0,97,0.00,,---,0.00,VWS V14.01,2013-02-22 20:52:00,
2013-02-22 15:58:00,43.2,42.4,27.90,SSE,158,0.0,0.0,97,0.00,,---,0.00,VWS V14.01,2013-02-22 20:58:00,
2013-02-22 16:03:00,43.2,42.4,27.90,SSE,158,0.0,0.0,97,0.00,,---,0.00,VWS V14.01,2013-02-22 21:03:00,
2013-02-22 16:08:00,43.2,42.4,27.90,SSE,158,0.0,0.0,97,0.00,,---,0.00,VWS V14.01,2013-02-22 21:08:00,
2013-02-22 16:13:00,43.0,42.2,27.90,SSE,158,0.0,0.0,97,0.00,,---,0.00,VWS V14.01,2013-02-22 21:13:00,
2013-02-22 16:18:00,43.2,42.4,27.90,SSE,158,0.0,0.0,97,0.00,,---,0.00,VWS V14.01,2013-02-22 21:18:00,
2013-02-22 16:23:00,43.2,42.4,27.90,SSE,158,0.0,0.0,97,0.00,,---,0.00,VWS V14.01,2013-02-22 21:23:00,
2013-02-22 16:28:00,43.2,42.4,27.90,SSE,158,0.0,0.0,97,0.00,,---,0.00,VWS V14.01,2013-02-22 21:28:00,
2013-02-22 16:33:00,43.0,41.9,27.90,SSE,158,0.0,0.0,96,0.00,,---,0.00,VWS V14.01,2013-02-22 21:33:00,
2013-02-22 16:38:00,42.8,41.7,27.90,SSE,158,0.0,0.0,96,0.00,,---,0.00,VWS V14.01,2013-02-22 21:38:00,
2013-02-22 16:43:00,42.8,41.7,27.90,SSE,158,0.0,0.0,96,0.00,,---,0.00,VWS V14.01,2013-02-22 21:43:00,
2013-02-22 16:48:00,42.8,42.0,27.90,SSE,158,0.0,0.0,97,0.00,,---,0.00,VWS V14.01,2013-02-22 21:48:00,
2013-02-22 16:53:00,42.6,41.8,27.90,SSE,158,0.0,0.0,97,0.00,,---,0.00,VWS V14.01,2013-02-22 21:53:00,
2013-02-22 16:58:00,42.8,42.0,27.90,SSE,158,0.0,0.0,97,0.00,,---,0.00,VWS V14.01,2013-02-22 21:58:00,
2013-02-22 17:03:00,42.8,42.0,27.88,SSE,158,0.0,0.0,97,0.00,,---,0.00,VWS V14.01,2013-02-22 22:03:00,
2013-02-22 17:08:00,42.8,42.0,27.88,SSE,158,0.0,0.0,97,0.00,,---,0.00,VWS V14.01,2013-02-22 22:08:00,
2013-02-22 17:13:00,42.6,41.8,27.88,SSE,158,0.0,0.0,97,0.00,,---,0.00,VWS V14.01,2013-02-22 22:13:00,
2013-02-22 17:18:00,42.6,41.8,27.90,SSE,158,0.0,0.0,97,0.00,,---,0.00,VWS V14.01,2013-02-22 22:18:00,
2013-02-22 17:23:00,42.6,41.8,27.90,SSE,158,0.0,0.0,97,0.00,,---,0.00,VWS V14.01,2013-02-22 22:23:00,
2013-02-22 17:29:00,42.6,41.8,27.90,SSE,158,0.0,0.0,97,0.00,,---,0.00,VWS V14.01,2013-02-22 22:29:00,
2013-02-22 17:34:00,42.6,41.8,27.90,SSE,158,0.0,0.0,97,0.00,,---,0.00,VWS V14.01,2013-02-22 22:34:00,
2013-02-22 17:39:00,42.4,41.7,27.90,SSE,158,0.0,0.0,97,0.00,,---,0.00,VWS V14.01,2013-02-22 22:39:00,
2013-02-22 17:44:00,42.4,41.7,27.90,SSE,158,0.0,0.0,97,0.00,,---,0.00,VWS V14.01,2013-02-22 22:44:00,
2013-02-22 17:49:00,42.4,41.7,27.90,SSE,158,0.0,0.0,97,0.00,,---,0.00,VWS V14.01,2013-02-22 22:49:00,
2013-02-22 17:54:00,42.3,41.7,27.90,SSE,158,0.0,0.0,98,0.00,,---,0.00,VWS V14.01,2013-02-22 22:54:00,
2013-02-22 17:59:00,42.3,41.7,27.90,SSE,158,0.0,0.0,98,0.00,,---,0.00,VWS V14.01,2013-02-22 22:59:00,
2013-02-22 18:04:00,42.3,41.7,27.90,SSE,158,0.0,0.0,98,0.00,,---,0.00,VWS V14.01,2013-02-22 23:04:00,
2013-02-22 18:09:00,42.3,41.7,27.90,SSE,158,0.0,0.0,98,0.00,,---,0.00,VWS V14.01,2013-02-22 23:09:00,
2013-02-22 18:14:00,42.3,41.7,27.90,SSE,158,0.0,0.0,98,0.00,,---,0.00,VWS V14.01,2013-02-22 23:14:00,
2013-02-22 18:19:00,42.1,41.6,27.90,SSE,158,0.0,0.0,98,0.00,,---,0.00,VWS V14.01,2013-02-22 23:19:00,
2013-02-22 18:24:00,42.1,41.6,27.90,SSE,158,0.0,0.0,98,0.00,,---,0.00,VWS V14.01,2013-02-22 23:24:00,
2013-02-22 18:29:00,41.9,41.4,27.90,SSE,158,0.0,0.0,98,0.00,,---,0.00,VWS V14.01,2013-02-22 23:29:00,
2013-02-22 18:34:00,41.9,41.4,27.90,SSE,158,0.0,0.0,98,0.00,,---,0.00,VWS V14.01,2013-02-22 23:34:00,
2013-02-22 18:39:00,41.9,41.4,27.90,SSE,158,0.0,0.0,98,0.00,,---,0.00,VWS V14.01,2013-02-22 23:39:00,
2013-02-22 18:44:00,41.9,41.4,27.90,SSE,158,0.0,0.0,98,0.00,,---,0.00,VWS V14.01,2013-02-22 23:44:00,
2013-02-22 18:49:00,41.7,41.2,27.90,SSE,158,0.0,0.0,98,0.00,,---,0.00,VWS V14.01,2013-02-22 23:49:00,
2013-02-22 18:54:00,41.7,41.2,27.90,SSE,158,0.0,0.0,98,0.00,,---,0.00,VWS V14.01,2013-02-22 23:54:00,
2013-02-22 19:00:00,41.7,41.2,27.90,SSE,158,0.0,0.0,98,0.00,,---,0.00,VWS V14.01,2013-02-23 00:00:00,
2013-02-22 19:05:00,41.7,41.2,27.93,SSE,158,0.0,0.0,98,0.00,,---,0.00,VWS V14.01,2013-02-23 00:05:00,
2013-02-22 19:10:00,41.7,41.2,27.93,SSE,158,0.0,0.0,98,0.00,,---,0.00,VWS V14.01,2013-02-23 00:10:00,
2013-02-22 19:15:00,41.7,41.2,27.93,SSE,158,0.0,0.0,98,0.00,,---,0.00,VWS V14.01,2013-02-23 00:15:00,
2013-02-22 19:20:00,41.7,41.2,27.90,SSE,158,0.0,0.0,98,0.00,,---,0.00,VWS V14.01,2013-02-23 00:20:00,
2013-02-22 19:25:00,41.7,41.2,27.90,SSE,158,0.0,0.0,98,0.00,,---,0.00,VWS V14.01,2013-02-23 00:25:00,
2013-02-22 19:30:00,41.9,41.4,27.90,SSE,158,0.0,0.0,98,0.00,,---,0.00,VWS V14.01,2013-02-23 00:30:00,
2013-02-22 19:35:00,41.9,41.4,27.90,SSE,158,0.0,0.0,98,0.00,,---,0.00,VWS V14.01,2013-02-23 00:35:00,
2013-02-22 19:40:00,41.9,41.4,27.90,SSE,158,0.0,0.0,98,0.00,,---,0.00,VWS V14.01,2013-02-23 00:40:00,
2013-02-22 19:45:00,41.9,41.4,27.90,SSE,158,0.0,0.0,98,0.00,,---,0.00,VWS V14.01,2013-02-23 00:45:00,
2013-02-22 19:50:00,42.1,41.6,27.90,SSE,158,0.0,0.0,98,0.00,,---,0.00,VWS V14.01,2013-02-23 00:50:00,
2013-02-22 19:55:00,42.1,41.6,27.90,SSE,158,0.0,0.0,98,0.00,,---,0.00,VWS V14.01,2013-02-23 00:55:00,
2013-02-22 20:00:00,42.1,41.6,27.90,SSE,158,0.0,0.0,98,0.00,,---,0.00,VWS V14.01,2013-02-23 01:00:00,
2013-02-22 20:05:00,42.1,41.6,27.90,SSE,158,0.0,0.0,98,0.00,,---,0.00,VWS V14.01,2013-02-23 01:05:00,
2013-02-22 20:10:00,41.9,41.4,27.90,SSE,158,0.0,0.0,98,0.00,,---,0.00,VWS V14.01,2013-02-23 01:10:00,
2013-02-22 20:15:00,41.7,41.2,27.90,SSE,158,0.0,0.0,98,0.00,,---,0.00,VWS V14.01,2013-02-23 01:15:00,
2013-02-22 20:20:00,41.7,41.2,27.88,SSE,158,0.0,0.0,98,0.00,,---,0.00,VWS V14.01,2013-02-23 01:20:00,
2013-02-22 20:25:00,41.7,41.2,27.88,SSE,158,0.0,0.0,98,0.00,,---,0.00,VWS V14.01,2013-02-23 01:25:00,
2013-02-22 20:31:00,41.7,41.2,27.88,SSE,158,0.0,0.0,98,0.00,,---,0.00,VWS V14.01,2013-02-23 01:31:00,
2013-02-22 20:36:00,41.5,41.0,27.88,SSE,158,0.0,0.0,98,0.00,,---,0.00,VWS V14.01,2013-02-23 01:36:00,
2013-02-22 20:41:00,41.5,41.0,27.88,SSE,158,0.0,0.0,98,0.00,,---,0.00,VWS V14.01,2013-02-23 01:41:00,
2013-02-22 20:46:00,41.7,41.2,27.88,SSE,158,0.0,0.0,98,0.00,,---,0.00,VWS V14.01,2013-02-23 01:46:00,
2013-02-22 20:51:00,41.7,41.2,27.90,SSE,158,0.0,0.0,98,0.00,,---,0.00,VWS V14.01,2013-02-23 01:51:00,
2013-02-22 20:56:00,41.7,41.2,27.90,SSE,158,0.0,0.0,98,0.00,,---,0.00,VWS V14.01,2013-02-23 01:56:00,
2013-02-22 21:01:00,41.7,41.2,27.90,SSE,158,0.0,0.0,98,0.00,,---,0.00,VWS V14.01,2013-02-23 02:01:00,
2013-02-22 21:06:00,41.7,41.2,27.90,SSE,158,0.0,0.0,98,0.00,,---,0.00,VWS V14.01,2013-02-23 02:06:00,
2013-02-22 21:11:00,41.7,41.2,27.90,SSE,158,0.0,0.0,98,0.00,,---,0.00,VWS V14.01,2013-02-23 02:11:00,
2013-02-22 21:16:00,41.7,41.2,27.90,SSE,158,0.0,0.0,98,0.00,,---,0.00,VWS V14.01,2013-02-23 02:16:00,
2013-02-22 21:21:00,41.5,41.0,27.90,SSE,158,0.0,0.0,98,0.00,,---,0.00,VWS V14.01,2013-02-23 02:21:00,
2013-02-22 21:26:00,41.7,41.2,27.90,SSE,158,0.0,0.0,98,0.00,,---,0.00,VWS V14.01,2013-02-23 02:26:00,
2013-02-22 21:31:00,41.7,41.2,27.90,SSE,158,0.0,0.0,98,0.00,,---,0.00,VWS V14.01,2013-02-23 02:31:00,
2013-02-22 21:37:00,41.9,41.4,27.90,SSE,158,0.0,0.0,98,0.00,,---,0.00,VWS V14.01,2013-02-23 02:37:00,
2013-02-22 21:42:00,41.9,41.4,27.90,SSE,158,0.0,0.0,98,0.00,,---,0.00,VWS V14.01,2013-02-23 02:42:00,
2013-02-22 21:47:00,42.1,41.6,27.93,SSE,158,0.0,0.0,98,0.00,,---,0.00,VWS V14.01,2013-02-23 02:47:00,
2013-02-22 21:52:00,42.1,41.6,27.93,SSE,158,0.0,0.0,98,0.00,,---,0.00,VWS V14.01,2013-02-23 02:52:00,
2013-02-22 21:57:00,42.1,41.6,27.93,SSE,158,0.0,0.0,98,0.00,,---,0.00,VWS V14.01,2013-02-23 02:57:00,
2013-02-22 22:02:00,42.1,41.6,27.93,SSE,158,0.0,0.0,98,0.00,,---,0.00,VWS V14.01,2013-02-23 03:02:00,
2013-02-22 22:07:00,42.3,41.7,27.93,SSE,158,0.0,0.0,98,0.00,,---,0.00,VWS V14.01,2013-02-23 03:07:00,
2013-02-22 22:12:00,42.3,41.7,27.93,SSE,158,0.0,0.0,98,0.00,,---,0.00,VWS V14.01,2013-02-23 03:12:00,
2013-02-22 22:17:00,42.3,41.7,27.93,SSE,158,0.0,0.0,98,0.00,,---,0.00,VWS V14.01,2013-02-23 03:17:00,
2013-02-22 22:22:00,42.3,41.7,27.90,SSE,158,0.0,0.0,98,0.00,,---,0.00,VWS V14.01,2013-02-23 03:22:00,
2013-02-22 22:27:00,42.4,41.9,27.90,SSE,158,0.0,0.0,98,0.00,,---,0.00,VWS V14.01,2013-02-23 03:27:00,
2013-02-22 22:32:00,42.4,41.9,27.93,SSE,158,0.0,0.0,98,0.00,,---,0.00,VWS V14.01,2013-02-23 03:32:00,
2013-02-22 22:37:00,42.4,41.9,27.93,SSE,158,0.0,0.0,98,0.00,,---,0.00,VWS V14.01,2013-02-23 03:37:00,
2013-02-22 22:42:00,42.6,42.1,27.93,SSE,158,0.0,0.0,98,0.00,,---,0.00,VWS V14.01,2013-02-23 03:42:00,
2013-02-22 22:47:00,42.6,42.1,27.93,SSE,158,0.0,0.0,98,0.00,,---,0.00,VWS V14.01,2013-02-23 03:47:00,
2013-02-22 22:52:00,42.6,42.1,27.93,SSE,158,0.0,0.0,98,0.00,,---,0.00,VWS V14.01,2013-02-23 03:52:00,
2013-02-22 22:57:00,42.4,41.9,27.93,SSE,158,0.0,0.0,98,0.00,,---,0.00,VWS V14.01,2013-02-23 03:57:00,
2013-02-22 23:02:00,42.4,41.9,27.90,SSE,158,0.0,0.0,98,0.00,,---,0.00,VWS V14.01,2013-02-23 04:02:00,
2013-02-22 23:07:00,42.4,41.9,27.90,SSE,158,0.0,0.0,98,0.00,,---,0.00,VWS V14.01,2013-02-23 04:07:00,
2013-02-22 23:12:00,42.4,41.9,27.90,SSE,158,0.0,0.0,98,0.00,,---,0.00,VWS V14.01,2013-02-23 04:12:00,
2013-02-22 23:17:00,42.3,41.7,27.90,SSE,158,0.0,0.0,98,0.00,,---,0.00,VWS V14.01,2013-02-23 04:17:00,
2013-02-22 23:22:00,42.1,41.6,27.90,SSE,158,0.0,0.0,98,0.00,,---,0.00,VWS V14.01,2013-02-23 04:22:00,
2013-02-22 23:27:00,42.1,41.6,27.90,SSE,158,0.0,0.0,98,0.00,,---,0.00,VWS V14.01,2013-02-23 04:27:00,
2013-02-22 23:32:00,42.1,41.6,27.90,SSE,158,0.0,0.0,98,0.00,,---,0.00,VWS V14.01,2013-02-23 04:32:00,
2013-02-22 23:38:00,42.1,41.6,27.90,SSE,158,0.0,0.0,98,0.00,,---,0.00,VWS V14.01,2013-02-23 04:38:00,
2013-02-22 23:43:00,41.9,41.4,27.90,SSE,158,0.0,0.0,98,0.00,,---,0.00,VWS V14.01,2013-02-23 04:43:00,
2013-02-22 23:48:00,41.9,41.4,27.90,SSE,158,0.0,0.0,98,0.00,,---,0.00,VWS V14.01,2013-02-23 04:48:00,
2013-02-22 23:53:00,41.9,41.4,27.90,SSE,158,0.0,0.0,98,0.00,,---,0.00,VWS V14.01,2013-02-23 04:53:00,
2013-02-22 23:58:00,41.9,41.4,27.90,SSE,158,0.0,0.0,98,0.00,,---,0.00,VWS V14.01,2013-02-23 04:58:00,